Location: Nitra
(0.0000°N, 18.0833°E)
Time: 19:04:54
(UTC+01:00)

FUSE - Pass Details

Date: 24 January 2021
Orbit: 742 x 756 km, 25.0° (Epoch: 01 March)

Event Time Altitude Azimuth Distance (km) Brightness Sun altitude
Rises 18:58:26 0° 295° (WNW) 3,166 7.9 -13.8°
Reaches altitude 10° 19:00:54 10° 295° (WNW) 2,242 7.1 -14.4°
Maximum altitude 19:06:13 83° 208° (SSW) 746 3.9 -15.7°
Enters shadow 19:10:46 14° 119° (ESE) 1,957 5.7 -16.7°
